{"data":{"norad_id":66669,"intl_designator":"2025-276D","name":"SARI-2","alt_names":[],"object_type":"PAYLOAD","status":"ACTIVE","operator":null,"country":"SAUD","launch_date":"2025-11-28","launch_site_code":"AFWTR","launch_vehicle":null,"mission":null,"orbit_class":"UNKNOWN","rcs_meters":null,"size_class":null,"mass_kg":null,"dimensions":null,"purposes":[],"wikipedia_slug":null,"has_3d_model":false,"image_url":null,"decayed_at":null,"tle_current":{"epoch":"2026-09-20T22:14:52.336896Z","epoch_age_seconds":84117,"freshness":"FRESH","line1":"1 66669U 25276D   26263.92699464  .00020352  00000+0  65754-3 0  9994","line2":"2 66669  97.3984 337.7661 0006025  42.9757 317.1954 15.32114243 45123","mean_motion":15.32114243,"eccentricity":0.0006025,"inclination_deg":97.3984,"raan_deg":337.7661,"arg_perigee_deg":42.9757,"mean_anomaly_deg":317.1954,"bstar":0.00065754,"rev_number":4512,"period_min":93.987769291954,"perigee_km":465.37973206096,"apogee_km":473.6311411971,"semimajor_km":6847.642436629,"source":"CELESTRAK","updated_at":"2026-09-21T09:00:16.119855Z"}}}